National Weather Service Raw Text Product

Displaying AFOS PIL: RWRIA Received: 2018-02-14 10:00 UTC


136 
ASUS43 KDMX 141006
RWRIA 

WEATHER ROUNDUP FOR IOWA
NATIONAL WEATHER SERVICE DES MOINES IA
400 AM CST WED FEB 14 2018

NOTE: "FAIR" INDICATES FEW OR NO CLOUDS BELOW 12,000 FEET WITH NO
SIGNIFICANT WEATHER AND/OR OBSTRUCTIONS TO VISIBILITY.

* - THESE STATIONS ARE NOT NWS STATIONS...THUS NOT UNDER NWS
QUALITY CONTROL.  THEY ALSO DO NOT REPORT WEATHER SUCH 
AS PRECIPITATION OR FOG.  

IAZ001>003-012>014-020>022-031>034-043>046-141100-
   NORTHWEST IOWA
  
CITY           SKY/WX    TMP DP  RH WIND       PRES   REMARKS
CARROLL *      CLOUDY    28  25  86 SW13      29.99F WCI  18          
CHEROKEE *     PTCLDY    26  24  92 S8        29.97F WCI  17          
DENISON *      CLOUDY    27  25  93 S5        30.01F WCI  21          
LE MARS *      CLOUDY    21  19  93 S10       29.95F WCI  10          
ORANGE CITY *  CLOUDY    21  21 100 S9        29.93F WCI  11          
SHELDON *      CLOUDY    16  16 100 S6        29.92F WCI   7          
SIOUX CITY     CLOUDY    19  17  92 SE10      29.98F WCI   7          
SPENCER        CLOUDY    19  16  88 S3        29.95F                  
STORM LAKE *   CLOUDY    30  23  74 SW12      29.96F WCI  21          
$$
 
IAZ055>058-069>071-079>083-090>094-141100-
   SOUTHWEST IOWA
  
CITY           SKY/WX    TMP DP  RH WIND       PRES   REMARKS
ATLANTIC *     CLEAR     25  25 100 S10       30.03F WCI  15          
AUDUBON *      CLOUDY    30  27  86 CALM      30.02F                  
CLARINDA *     CLEAR     28  28 100 S7        30.09F WCI  21          
COUNCIL BLFS * CLOUDY    34  34 100 S8        30.01F WCI  27          
CRESTON *      CLEAR     32  27  80 SW10      30.06F WCI  24          
HARLAN  *      CLOUDY    21  21 100 CALM      30.05F                  
LAMONI         CLEAR     33  26  75 S10       30.07F WCI  25          
RED OAK *      CLOUDY    28  27  93 S7        30.06S WCI  21          
SHENANDOAH *   PTCLDY    25  23  93 SE5       30.06F WCI  19          
$$
 
IAZ047>049-059>061-072>074-084-141100-
   CENTRAL IOWA
  
CITY           SKY/WX    TMP DP  RH WIND       PRES   REMARKS
AMES           CLOUDY    13  11  92 SE5       30.03F FOG     WCI   5  
ANKENY *       CLOUDY    28  25  86 S5        30.06F WCI  23          
BOONE *        CLOUDY    30  25  80 SW6       30.00F WCI  24          
CHARITON *     CLEAR     32  27  80 S12       30.07F WCI  23          
DES MOINES     CLOUDY    29  23  78 S7        30.04F WCI  22          
GRINNELL*      CLOUDY    30  24  79 S9        30.07F WCI  22          
KNOXVILLE *    CLEAR     34  25  69 S13       30.05F WCI  25          
MARSHALLTOWN   CLOUDY    26  21  81 S10       30.03F WCI  16          
NEWTON *       CLOUDY    30  25  80 S8        30.06F WCI  23          
PELLA *        CLEAR     33  26  76 S7        30.09F WCI  27          
PERRY *        FAIR      19  18  97 SE5       30.02F WCI  12          
$$
 
IAZ004>006-015-016-023>025-035-036-141100-
   NORTH CENTRAL IOWA
  
CITY           SKY/WX    TMP DP  RH WIND       PRES   REMARKS
ALGONA *       CLOUDY    21 N/A N/A S14       29.95F WCI   8          
CLARION *      CLOUDY    16  16 100 S10       30.00F WCI   3          
ESTHERVILLE    CLOUDY    25  20  81 SW15      29.93F WCI  13          
FORT DODGE *   CLOUDY    22  20  92 S6        29.99F WCI  14          
MASON CITY     CLOUDY    19  16  88 S6        29.99F WCI  11          
FOREST CITY *  FAIR      21  21 100 SW3       29.98F                  
WEBSTER CITY * CLOUDY    23  19  86 S10       29.98F WCI  12          
IOWA FALLS *   FAIR      25  21  85 SE6       30.02F WCI  18          
$$

IAZ007>011-017>019-026>030-037>042-050>054-066-141100-
   NORTHEAST IOWA
  
CITY           SKY/WX    TMP DP  RH WIND       PRES   REMARKS
CEDAR RAPIDS   FAIR      27  21  78 S7        30.07F WCI  19          
CHARLES CITY * FAIR      18  18 100 S7        30.02F WCI   8          
CLINTON *      FAIR      25  22  88 SW8       30.12F WCI  16          
DECORAH *      FAIR      28  21  74 SW7G13    30.00F WCI  21          
DUBUQUE        FAIR      23  18  81 S10       30.06F WCI  12          
MONTICELLO *   FAIR      23  19  86 S7        30.08F WCI  15          
OELWEIN *      FAIR      21  21 100 S10       30.04F WCI  10          
WATERLOO       FAIR      18  17  96 SE5       30.04F FOG     WCI  11  
$$
 
IAZ064-065-067-068-078-141100-
   EAST CENTRAL IOWA
  
CITY           SKY/WX    TMP DP  RH WIND       PRES   REMARKS
DAVENPORT      FAIR      28  22  78 S8        30.13F WCI  20          
IOWA CITY      FOG       16  13  88 CALM      30.12F VSB 1/4          
MT. PLEASANT * CLOUDY    30  25  80 S10       30.13F WCI  21          
MUSCATINE *    FOG       14  10  85 CALM      30.14F VSB<1/4          
QUAD CITIES    FAIR      31  24  75 CALM      30.12F                  
$$
 
IAZ062-063-075>077-085>089-095>099-141100-
   SOUTHEAST IOWA
  
CITY           SKY/WX    TMP DP  RH WIND       PRES   REMARKS
BURLINGTON     CLOUDY    29  23  78 S6        30.14F WCI  23          
FAIRFIELD *    CLEAR     30  23  74 S8        30.10F WCI  23          
FORT MADISON * CLEAR     34  28  80 S12       30.14F WCI  25          
KEOKUK *       CLOUDY    34  28  80 S8        30.14F WCI  27          
OSKALOOSA *    FAIR      27  23  86 S10       30.09F WCI  17          
OTTUMWA        CLEAR     32  25  75 S10       30.09F WCI  24          
WASHINGTON *   CLOUDY    28  27  93 S12       30.12F WCI  18          
$$

ABBREVIATIONS USED IN REMARKS
   TC - TEMPERATURES IN CELSIUS
  WCI - WIND CHILL INDEX
   HX - HEAT INDEX
  VSB - VISIBILITY  
$$

  

576 
ASUS43 KDMX 141001
RWRIA 

WEATHER ROUNDUP FOR IOWA
NATIONAL WEATHER SERVICE DES MOINES IA
400 AM CST WED FEB 14 2018

NOTE: "FAIR" INDICATES FEW OR NO CLOUDS BELOW 12,000 FEET WITH NO
SIGNIFICANT WEATHER AND/OR OBSTRUCTIONS TO VISIBILITY.

* - THESE STATIONS ARE NOT NWS STATIONS...THUS NOT UNDER NWS
QUALITY CONTROL.  THEY ALSO DO NOT REPORT WEATHER SUCH 
AS PRECIPITATION OR FOG.  

IAZ001>003-012>014-020>022-031>034-043>046-141100-
   NORTHWEST IOWA
  
CITY           SKY/WX    TMP DP  RH WIND       PRES   REMARKS
CARROLL *      CLOUDY    28  25  86 SW13      29.99F WCI  18          
CHEROKEE *     PTCLDY    26  24  92 S8        29.97F WCI  17          
DENISON *      CLOUDY    27  25  93 S5        30.01F WCI  21          
LE MARS *      CLOUDY    21  19  93 S10       29.95F WCI  10          
ORANGE CITY *  CLOUDY    21  21 100 S9        29.93F WCI  11          
SHELDON *      CLOUDY    16  16 100 S6        29.92F WCI   7          
SIOUX CITY     CLOUDY    19  17  92 SE10      29.98F WCI   7          
SPENCER        CLOUDY    19  16  88 S3        29.95F                  
STORM LAKE *   CLOUDY    30  23  74 SW12      29.96F WCI  21          
$$
 
IAZ055>058-069>071-079>083-090>094-141100-
   SOUTHWEST IOWA
  
CITY           SKY/WX    TMP DP  RH WIND       PRES   REMARKS
ATLANTIC *     CLEAR     25  25 100 S10       30.03F WCI  15          
AUDUBON *      CLOUDY    30  27  86 CALM      30.02F                  
CLARINDA *     CLEAR     28  28 100 S7        30.09F WCI  21          
COUNCIL BLFS * CLOUDY    34  34 100 S8        30.01F WCI  27          
CRESTON *      CLEAR     32  27  80 SW10      30.06F WCI  24          
HARLAN  *      CLOUDY    21  21 100 CALM      30.05F                  
LAMONI         CLEAR     33  26  75 S10       30.07F WCI  25          
RED OAK *      CLOUDY    28  27  93 S7        30.06S WCI  21          
SHENANDOAH *   PTCLDY    25  23  93 SE5       30.06F WCI  19          
$$
 
IAZ047>049-059>061-072>074-084-141100-
   CENTRAL IOWA
  
CITY           SKY/WX    TMP DP  RH WIND       PRES   REMARKS
AMES           CLOUDY    13  11  92 SE5       30.03F FOG     WCI   5  
ANKENY *       CLOUDY    28  25  86 S5        30.06F WCI  23          
BOONE *        CLOUDY    30  25  80 SW6       30.00F WCI  24          
CHARITON *     CLEAR     32  27  80 S12       30.07F WCI  23          
DES MOINES     CLOUDY    29  23  78 S7        30.04F WCI  22          
GRINNELL*      CLOUDY    30  24  79 S9        30.07F WCI  22          
KNOXVILLE *    CLEAR     34  25  69 S13       30.05F WCI  25          
MARSHALLTOWN   CLOUDY    26  21  81 S10       30.03F WCI  16          
NEWTON *       CLOUDY    30  25  80 S8        30.06F WCI  23          
PELLA *        CLEAR     33  26  76 S7        30.09F WCI  27          
$$
 
IAZ004>006-015-016-023>025-035-036-141100-
   NORTH CENTRAL IOWA
  
CITY           SKY/WX    TMP DP  RH WIND       PRES   REMARKS
CLARION *      CLOUDY    16  16 100 S10       30.00F WCI   3          
ESTHERVILLE    CLOUDY    25  20  81 SW15      29.93F WCI  13          
FORT DODGE *   CLOUDY    22  20  92 S6        29.99F WCI  14          
MASON CITY     CLOUDY    19  16  88 S6        29.99F WCI  11          
FOREST CITY *  FAIR      21  21 100 SW3       29.98F                  
WEBSTER CITY * CLOUDY    23  19  86 S10       29.98F WCI  12          
IOWA FALLS *   FAIR      25  21  85 SE6       30.02F WCI  18          
$$

IAZ007>011-017>019-026>030-037>042-050>054-066-141100-
   NORTHEAST IOWA
  
CITY           SKY/WX    TMP DP  RH WIND       PRES   REMARKS
CEDAR RAPIDS   FAIR      27  21  78 S7        30.07F WCI  19          
CHARLES CITY * FAIR      18  18 100 S7        30.02F WCI   8          
CLINTON *      FAIR      25  22  88 SW8       30.12F WCI  16          
DECORAH *      FAIR      28  21  74 SW7G13    30.00F WCI  21          
DUBUQUE        FAIR      23  18  81 S10       30.06F WCI  12          
MONTICELLO *   FAIR      23  19  86 S7        30.08F WCI  15          
OELWEIN *      FAIR      21  21 100 S10       30.04F WCI  10          
WATERLOO       FAIR      18  17  96 SE5       30.04F FOG     WCI  11  
$$
 
IAZ064-065-067-068-078-141100-
   EAST CENTRAL IOWA
  
CITY           SKY/WX    TMP DP  RH WIND       PRES   REMARKS
DAVENPORT      FAIR      28  22  78 S8        30.13F WCI  20          
IOWA CITY      FOG       16  13  88 CALM      30.12F VSB 1/4          
MT. PLEASANT * CLOUDY    30  25  80 S10       30.13F WCI  21          
MUSCATINE *    FOG       14  10  85 CALM      30.14F VSB<1/4          
QUAD CITIES    FAIR      31  24  75 CALM      30.12F                  
$$
 
IAZ062-063-075>077-085>089-095>099-141100-
   SOUTHEAST IOWA
  
CITY           SKY/WX    TMP DP  RH WIND       PRES   REMARKS
BURLINGTON     CLOUDY    29  23  78 S6        30.14F WCI  23          
FAIRFIELD *    CLEAR     30  23  74 S8        30.10F WCI  23          
FORT MADISON * CLEAR     34  28  80 S12       30.14F WCI  25          
KEOKUK *       CLOUDY    34  28  80 S8        30.14F WCI  27          
OSKALOOSA *    FAIR      27  23  86 S10       30.09F WCI  17          
OTTUMWA        CLEAR     32  25  75 S10       30.09F WCI  24          
WASHINGTON *   CLOUDY    28  27  93 S12       30.12F WCI  18          
$$

ABBREVIATIONS USED IN REMARKS
   TC - TEMPERATURES IN CELSIUS
  WCI - WIND CHILL INDEX
   HX - HEAT INDEX
  VSB - VISIBILITY  
$$